Darwin, CA

10:29 PM PDT on September 24, 2016 (GMT -0700)
China Lake NAWS

Weather History for KNID - November, 2012

Change the Weather History Date:

Monday, November 26, 2012

  Actual Average Record
Temperature  
Mean Temperature 52 °F -  
Max Temperature 71 °F 59 °F 71 °F (2012)
Min Temperature 32 °F 35 °F 17 °F (2010)
Degree Days  
Heating Degree Days 14    
Growing Degree Days 2 (Base 50)    
Moisture  
Dew Point 15 °F    
Average Humidity 27    
Maximum Humidity 43    
Minimum Humidity 13    
Precipitation  
Precipitation 0.00 in - - ()
Sea Level Pressure  
Sea Level Pressure 30.08 in    
Wind  
Wind Speed 2 mph (SW)    
Max Wind Speed 10 mph    
Max Gust Speed -    
Visibility 10 miles    
Events      
Averages and records for this station are not official NWS values.
T = Trace of Precipitation, MM = Missing Value Source: NWS Daily Summary

Daily Weather History Graph

Daily Weather History Graph

Search for Another Location

Airport or City:

Trip Planner

Search our weather history database for the weather conditions in past years. The results will help you decide how hot, cold, wet, or windy it might be!

Date:

Astronomy

Nov. 26, 2012 Rise Set
Actual Time 6:37 AM PST 4:38 PM PST
Civil Twilight 6:10 AM PST 5:06 PM PST
Nautical Twilight 5:38 AM PST 5:37 PM PST
Astronomical Twilight 5:08 AM PST 6:08 PM PST
Moon 3:32 PM PST (11/26) 4:54 AM PST (11/26)
Length of Visible Light 10h 56m
Length of Day
10h 00m
Waxing Gibbous, 97% of the Moon is Illuminated
Nov 26
Waxing Gibbous
Nov 28
Full
Dec 6
Last Quarter
Dec 13
New
Dec 19
First Quarter

Hourly Weather History & Observations

Time (PST) Temp. Windchill Dew Point Humidity Pressure Visibility Wind Dir Wind Speed Gust Speed Precip Events Conditions
12:56 AM 37.9 °F 35.5 °F 14.0 °F 38% 30.00 in 10.0 mi NW 3.5 mph - N/A   Clear
1:56 AM 37.9 °F 35.5 °F 15.1 °F 39% 30.00 in 10.0 mi SW 3.5 mph - N/A   Clear
2:56 AM 37.0 °F - 14.0 °F 39% 30.01 in 10.0 mi Calm Calm - N/A   Clear
3:56 AM 36.0 °F - 14.0 °F 41% 30.01 in 10.0 mi Calm Calm - N/A   Clear
4:56 AM 32.0 °F - 10.0 °F 40% 30.05 in 10.0 mi Calm Calm - N/A   Clear
5:56 AM 32.0 °F - 10.9 °F 42% 30.07 in 10.0 mi Calm Calm - N/A   Clear
6:56 AM 33.1 °F 30.0 °F 12.9 °F 43% 30.10 in 10.0 mi South 3.5 mph - N/A   Clear
7:56 AM 42.1 °F - 15.1 °F 34% 30.11 in 10.0 mi Calm Calm - N/A   Clear
8:56 AM 48.9 °F - 15.1 °F 26% 30.12 in 10.0 mi Calm Calm - N/A   Clear
9:56 AM 55.9 °F - 17.1 °F 22% 30.12 in 10.0 mi Calm Calm - N/A   Clear
10:56 AM 62.1 °F - 18.0 °F 18% 30.11 in 10.0 mi Calm Calm - N/A   Clear
11:56 AM 66.0 °F - 18.0 °F 16% 30.08 in 10.0 mi Calm Calm - N/A   Clear
12:56 PM 69.1 °F - 19.0 °F 15% 30.06 in 10.0 mi Calm Calm - N/A   Clear
1:56 PM 70.0 °F - 18.0 °F 14% 30.05 in 10.0 mi Variable 4.6 mph - N/A   Clear
2:56 PM 71.1 °F - 18.0 °F 13% 30.05 in 10.0 mi Variable 3.5 mph - N/A   Clear
3:56 PM 71.1 °F - 18.0 °F 13% 30.04 in 10.0 mi Calm Calm - N/A   Clear
4:56 PM 64.0 °F - 18.0 °F 17% 30.07 in 10.0 mi Calm Calm - N/A   Clear
5:56 PM 57.0 °F - 15.1 °F 19% 30.09 in 10.0 mi Calm Calm - N/A   Clear
6:56 PM 50.0 °F - 14.0 °F 24% 30.11 in 10.0 mi SW 6.9 mph - N/A   Clear
7:56 PM 48.9 °F - 14.0 °F 25% 30.12 in 10.0 mi SSW 9.2 mph - N/A   Clear
8:56 PM 48.9 °F - 15.1 °F 26% 30.13 in 10.0 mi SSW 10.4 mph - N/A   Clear
9:56 PM 46.9 °F - 15.1 °F 28% 30.14 in 10.0 mi Calm Calm - N/A   Clear
10:56 PM 45.0 °F 41.8 °F 15.1 °F 30% 30.15 in 10.0 mi SW 5.8 mph - N/A   Clear
11:56 PM 42.1 °F - 14.0 °F 32% 30.16 in 10.0 mi Calm Calm - N/A   Clear